Location: Bats
(43.6587°N, 0.4584°W)
Time: 06:38:21
(UTC+00:00)

USA 215 - Pass Details

Date: 12 January 2026
Orbit: 1098 x 1109 km, 123.0° (Epoch: 10 January)

Event Time Altitude Azimuth Distance (km) Brightness Sun altitude
Exits shadow 18:10:45 18° 56° (NE) 2,399 4.5 -14.8°
Maximum altitude 18:15:46 69° 137° (SE) 1,170 3.3 -15.6°
Drops below altitude 10° 18:22:15 10° 220° (SW) 2,948 6.3 -16.8°
Sets 18:24:44 0° 223° (SW) 3,901 7.1 -17.2°
